Flag for Haiti Weather past 2 weeks in Port-au-Prince, Haiti

Now
73 °F

Partly sunny.


Feels Like: 68 °F
Forecast: 73 / 92 °F
Wind: No wind

Location: Santiago

Current Time: Aug 22, 2014 at 8:08:43 AM

Latest Report: Aug 22, 2014 at 7:00 AM


Visibility: N/A

Pressure: 29.95 "Hg

Humidity: 100%

Dew point: 73 °F

Location of Port-au-PrinceLocation

Historic Weather in Port-au-Prince — Graph

°F

Port-au-Prince temperature yesterday

Maximum temperature yesterday: 91 °F (at 1:00 PM)
Minimum temperature yesterday: 72 °F (at 6:00 AM)
Average temperature yesterday: 82 °F

Past Weeks' High & Low Weather Summary

 TemperatureHumidityPressure
High95 °F (Aug 13, 3:00 PM)100% (Aug 8, 5:00 AM)30.09 "Hg (Aug 8, 5:00 AM)
Low68 °F (Aug 18, 11:00 AM)46% (Aug 10, 4:00 PM)29.92 "Hg (Aug 12, 3:00 PM)
Average82 °F78%30.02 "Hg
* Reported Aug 7 7:00 AM — Aug 22 7:00 AM, Port-au-Prince, Weather by CustomWeather, © 2014

Note: Actual official high and low records may vary slightly from our data, if they occured in-between our weather recording intervals... More about our weather records

Advertising

Port-au-Prince weather history for previous 24 hours

 ConditionsComfort  
Time TempWeatherWind HumidityBarometerVisibility
7:00 AM
Aug 22
73 °FPartly sunny.No wind100%29.95 "HgN/A
6:00 AM73 °FPassing clouds.No wind100%29.95 "HgN/A
5:00 AM73 °FPassing clouds.No wind100%29.98 "HgN/A
4:00 AM75 °FPassing clouds.5 mph94%29.98 "HgN/A
3:00 AM73 °FRain. Passing clouds.5 mph100%29.98 "Hg2 mi
2:00 AM75 °FPassing clouds.5 mph89%29.98 "HgN/A
1:00 AM77 °FPassing clouds.5 mph83%30.01 "HgN/A
12:00 AM77 °FPassing clouds.No wind83%30.04 "HgN/A
11:00 PM
Aug 21
79 °FPassing clouds.9 mph79%30.04 "HgN/A
10:00 PM79 °FPassing clouds.7 mph79%30.04 "HgN/A
9:00 PM79 °FPassing clouds.9 mph79%30.04 "HgN/A
8:00 PM82 °FPassing clouds.7 mph70%30.01 "HgN/A
7:00 PM86 °FScattered clouds.12 mph66%29.98 "HgN/A
6:00 PM88 °FPassing clouds.12 mph62%29.95 "HgN/A
5:00 PM91 °FScattered clouds.17 mph59%29.95 "HgN/A
4:00 PM91 °FScattered clouds.17 mph59%29.95 "HgN/A
3:00 PM91 °FScattered clouds.17 mph56%29.98 "HgN/A
2:00 PM91 °FScattered clouds.18 mph56%29.98 "HgN/A
1:00 PM91 °FScattered clouds.16 mph63%N/AN/A
12:00 PM90 °FScattered clouds.14 mph63%30.04 "HgN/A
11:00 AM88 °FScattered clouds.12 mph66%30.04 "HgN/A
10:00 AM84 °FScattered clouds.7 mph74%30.07 "HgN/A
9:00 AM82 °FScattered clouds.No wind84%30.04 "HgN/A
8:00 AM77 °FScattered clouds.No wind94%30.04 "HgN/A
Weather by CustomWeather, © 2014

See weather overviewHow to use our weather pages